Location: Dracy
(47.4100°N, 4.5074°E)
Time: 19:23:43
(UTC+00:00)

Daily predictions for brighter satellites

Satellite Brightness Start Highest point End
(mag) Time Altitude Azimuth Time Altitude Azimuth Time Altitude Azimuth
ATLAS 2AS CENTAUR R/B 3.2 17:38:54 10° SSW 17:46:32 53° ESE 17:54:08 10° NE
CZ-2D R/B 3.3 17:45:35 10° SSE 17:49:23 59° ENE 17:53:12 10° N
Cosmos 1269 Rocket 4.3 17:45:31 10° NNW 17:50:43 51° ENE 17:55:52 10° SE
Cosmos 1939 Rocket 2.9 17:47:45 10° SSE 17:51:54 85° ENE 17:56:03 10° NNW
GP-B 4.3 17:48:02 10° N 17:52:20 49° W 17:56:36 10° SSW
Cosmos 2082 Rocket 3.4 17:47:51 10° N 17:52:23 24° NE 17:56:54 10° E
Cosmos 1092 Rocket 4.4 17:51:45 10° N 17:57:36 42° ENE 18:03:27 10° SE
BREEZE-M DEB (TANK) 2.9 17:56:37 10° W 17:59:14 56° SSW 18:05:44 10° SE
Cosmos 1464 Rocket 4.0 17:53:09 10° S 17:59:18 83° E 18:05:34 10° N
PSLV R/B 4.0 17:56:10 10° NNE 18:00:24 83° ESE 18:04:38 10° SSW
COSMO-SKYMED 1 2.6 17:57:46 10° NNE 18:02:08 90° E 18:06:29 10° SSW
COSMOS 2455 4.1 17:58:24 10° SSE 18:02:25 19° ESE 18:06:27 10° ENE
Cosmos 1844 Rocket 3.2 17:57:41 10° SW 18:03:13 65° WNW 18:08:49 10° NNE
Okean-O 2.6 17:59:07 10° SSE 18:03:32 81° ENE 18:08:00 10° NNW
Cosmos 2151 Rocket 3.6 18:00:44 10° S 18:05:13 83° E 18:09:46 10° N
CZ-2C R/B 3.4 17:59:57 10° SSE 18:05:22 56° ENE 18:11:01 10° N
Cosmos 1689 Rocket 3.0 18:03:09 10° N 18:06:03 53° WNW 18:08:54 10° SSW
H-2A R/B 2.4 18:02:28 10° SE 18:07:15 43° ENE 18:12:11 10° N
KORONAS-FOTON 3.8 18:09:50 10° N 18:13:47 74° E 18:17:40 10° SSE
Cosmos 2285 Rocket 4.0 18:07:56 10° SSW 18:14:15 83° ESE 18:20:40 10° NNE
Cosmos 1025 Rocket 4.0 18:12:14 10° NNW 18:16:32 53° W 18:20:48 10° S
SJ-6B 4.5 18:15:12 13° E 18:16:36 16° ENE 18:18:56 10° NNE
Cosmos 1300 Rocket 4.4 18:12:20 10° SSW 18:16:41 55° WNW 18:21:05 10° N
ISS -3.1 18:15:26 10° WNW 18:18:42 44° N 18:21:09 16° E
Cosmos 1805 3.2 18:16:46 10° S 18:20:37 61° E 18:24:30 10° NNE
TSX-5 4.2 18:17:09 10° SSW 18:21:14 89° WNW 18:26:37 10° NNE
Cosmos 2278 Rocket 2.6 18:18:01 10° S 18:23:16 41° ESE 18:28:32 10° NE
Cosmos 1125 Rocket 4.4 18:24:25 10° SW 18:29:37 54° WNW 18:34:52 10° NNE
Cosmos 1833 Rocket 2.7 18:25:09 10° NNW 18:30:48 64° ENE 18:36:24 10° SE
CSL-04 Rocket 3.7 18:25:29 10° SSE 18:30:58 78° ENE 18:36:32 10° NNW
HJ-1C 3.3 18:27:46 10° SSE 18:31:01 62° ENE 18:34:19 10° N
Nadezhda 4 Rocket 4.2 18:25:36 10° NNW 18:31:43 74° W 18:37:50 10° S
Okean 1 Rocket 3.0 18:27:17 10° S 18:31:45 74° E 18:36:15 10° NNE
Cosmos 2251 Rocket 4.2 18:27:17 10° N 18:32:13 36° ENE 18:35:38 18° ESE
Okean 1-7 Rocket 4.5 18:31:52 10° N 18:35:54 30° ENE 18:38:11 20° ESE
CSL-04 Debris 4.2 18:31:22 10° SSE 18:36:45 90° ENE 18:42:12 10° NNW
Cosmos 1340 Rocket 3.0 18:32:57 10° S 18:36:47 48° E 18:40:40 10° NNE
COSMOS 2406 3.2 18:31:28 10° NNW 18:37:12 90° SW 18:42:53 10° SSE
YAOGAN 1 3.3 18:37:18 10° S 18:41:32 56° W 18:45:49 10° NNW
Lacrosse 4 Rocket 1.4 18:38:42 10° NNW 18:42:46 61° NE 18:45:15 22° SE
Cosmos 1674 3.9 18:40:20 10° NNW 18:44:01 45° W 18:47:40 10° SSW
Lacrosse 5 rocket 1.9 18:40:22 10° NW 18:44:40 49° NNE 18:46:58 25° E
CZ-4C R/B 2.5 18:43:56 10° S 18:48:26 37° ESE 18:53:41 10° NE
Cosmos 1758 4.4 18:50:55 26° ENE 18:50:55 26° ENE 18:53:46 10° NNE
Exosat Rocket 4.1 18:45:48 10° SW 18:50:51 58° WNW 18:55:56 10° NNE
CZ-4 R/B 3.3 18:50:56 10° SSW 18:54:42 33° W 18:58:27 10° NNW
Shenzhou-11 Module 3.7 18:53:42 10° SW 18:54:23 13° SSW 18:54:23 13° SSW
OE (NEXTSAT) 4.3 18:55:00 10° WSW 18:58:26 65° S 18:59:13 47° ESE
Cosmos 1892 Rocket 3.5 18:54:08 10° N 18:58:29 65° ENE 19:01:33 19° SSE
ARGOS 3.1 18:53:20 10° SSE 18:58:42 88° ENE 19:04:08 10° NNW
Meteor 1-24 Rocket 3.8 18:55:29 10° NNW 19:01:12 84° W 19:07:05 10° S
MOS 1 Rocket 3.0 18:57:51 10° NNE 19:02:11 87° WNW 19:06:28 10° SSW
CZ-2C R/B 3.0 18:56:48 10° NNE 19:02:12 46° E 19:07:35 10° S
APEX 3.2 18:59:29 10° S 19:02:39 48° ESE 19:03:27 40° ENE
Cosmos 1626 2.5 19:00:38 10° NNW 19:04:18 63° W 19:07:56 10° S
USA 186 1.7 19:04:00 56° ESE 19:04:24 62° ENE 19:07:39 10° N
Cosmos 1544 Rocket 4.4 19:05:34 30° ENE 19:05:34 30° ENE 19:08:35 10° NNE
MOS 1 4.4 19:03:08 22° SE 19:06:44 58° ENE 19:12:20 10° N
Meteor 1-22 Rocket 4.4 19:01:05 10° S 19:07:06 89° W 19:13:15 10° N
Aureole 2 Rocket 3.6 19:05:25 10° SW 19:08:33 40° WNW 19:11:39 10° N
Cosmos 1470 2.7 19:08:01 36° SSE 19:09:17 55° E 19:13:05 10° NNE
Ariane Rocket 2.9 19:06:14 23° SSE 19:09:21 66° ENE 19:14:26 10° N
Resurs 01 Rocket 3.1 19:10:01 22° NE 19:10:01 22° NE 19:12:51 10° NNE
SL-14 R/B 3.7 19:06:25 10° NNW 19:10:23 65° W 19:14:21 10° S
NOSS 3-4 (A) 4.2 19:09:14 10° WSW 19:15:01 51° NW 19:21:18 10° NE
NOSS 3-4 (C) 4.2 19:09:19 10° WSW 19:15:07 51° NW 19:21:24 10° NE
SL-8 R/B 3.9 19:11:36 10° SW 19:16:15 51° SSE 19:17:03 46° ESE
Cosmos 2098 Rocket 3.8 19:12:17 10° N 19:18:12 50° ENE 19:19:21 42° ESE
MetOp-A 4.1 19:16:54 31° SE 19:19:28 67° ENE 19:24:48 10° N
Resurs 1-3 4.1 19:23:00 41° ENE 19:23:00 41° ENE 19:26:51 10° N
Milstar 3 Cent rocket 4.4 19:18:22 10° SW 19:22:47 15° SSW 19:25:28 12° S
Cosmos 407 Rocket 4.3 19:18:39 10° N 19:23:18 32° ENE 19:23:24 32° ENE
RESURS DK-1 2.5 19:19:35 10° SW 19:23:43 74° WNW 19:27:54 10° NNE
SL-08 RB Rocket 3.9 19:23:00 20° S 19:26:08 70° WSW 19:30:39 10° NNW
Cosmos 1634 Rocket 4.3 19:20:11 10° SSW 19:26:20 69° W 19:32:34 10° N
ATLAS 3B R/B 3.3 19:19:38 10° NW 19:26:20 56° WSW 19:31:52 17° SSE
USA 290 4.4 19:29:04 10° N 19:30:11 18° N 19:30:11 18° N
Cosmos 1461 3.1 19:31:40 10° NNW 19:36:27 68° NE 19:36:42 67° ENE
Cosmos 2082 Rocket 2.3 19:31:25 10° NNW 19:37:02 72° WSW 19:39:28 35° S
Meteor 2-10 4.0 19:35:06 34° SSE 19:37:25 67° E 19:42:39 10° NNE
ATLAS 2AS CENTAUR R/B 3.8 19:29:58 10° WSW 19:37:42 52° NW 19:45:19 10° NE
Cosmos 1626 Rocket 3.8 19:40:22 10° N 19:44:08 58° NNE 19:44:08 58° NNE
H-2A R/B 3.9 19:42:30 10° SSW 19:46:50 28° W 19:51:19 10° NW
COSMOS 2455 2.8 19:41:33 10° SW 19:47:35 84° WNW 19:53:41 10° NNE
Cosmos 1455 Rocket 3.5 19:43:35 10° SSW 19:47:54 59° WNW 19:52:14 10° N
SJ-6B 3.4 19:50:50 50° W 19:50:51 50° W 19:54:37 10° NNW
Cosmos 2084 4.3 19:46:52 10° NNW 19:50:28 42° NNE 19:50:28 42° NNE
OBJECT-B 3.1 19:55:53 21° NNW 19:55:53 21° NNW 19:57:06 10° NNW
Cosmos 2279 Rocket 4.3 19:48:49 10° SSW 19:55:02 67° WNW 20:01:19 10° N
ISS -1.8 19:52:17 10° WNW 19:54:07 29° W 19:54:07 29° W
Meteor 1-21 Rocket 4.2 19:51:25 10° N 19:57:19 88° E 19:58:18 64° SSE
DMSP B5D2-2 4.2 19:54:06 10° N 19:59:23 73° WNW 20:04:38 10° SSW
Cosmos 1655 Rocket 4.1 19:55:34 10° NNW 20:01:53 78° W 20:04:14 41° S
ATLAS CENTAUR R/B 3.8 20:04:45 10° N 20:05:28 13° N 20:05:28 13° N
Cosmos 2278 Rocket 3.6 20:02:11 10° WSW 20:07:24 37° NW 20:12:39 10° NNE
Cosmos 909 Rocket 4.5 20:03:09 10° NW 20:09:21 56° WSW 20:10:58 44° SSW
Gbstr 26 Del rocket 4.3 20:03:18 10° WSW 20:10:21 83° NNW 20:13:01 46° ENE
Lacrosse 4 Rocket 3.9 20:18:32 10° WNW 20:20:59 15° WSW 20:21:36 15° WSW
Lacrosse 5 rocket 3.1 20:19:39 10° WNW 20:22:36 32° W 20:22:36 32° W
CZ-4C R/B 3.1 20:31:48 10° WSW 20:36:47 45° NW 20:42:45 10° NE
SPOT 3 Rocket 4.4 20:38:02 45° W 20:38:02 45° W 20:42:32 10° NNW
Terra 4.3 20:45:21 14° N 20:45:21 14° N 20:46:12 10° N
CZ-2C R/B 4.4 20:37:25 10° N 20:42:18 31° WNW 20:47:10 10° WSW
Resurs 01 Rocket 3.6 20:47:36 27° NW 20:47:36 27° NW 20:49:53 10° NNW
USA 229 DEB 4.4 20:56:02 10° NW 21:02:11 49° NNE 21:02:11 49° NNE
USA 229 4.4 20:56:08 10° NW 21:02:17 49° NNE 21:02:17 49° NNE
